DELTA 1 DEB, 7148

Orbit data source: Space-Track

DELTA 1 DEB, 7148 is space debris in SSO originally from a launch on Tue, 06 Nov 1973 UTC launched from the Air Force Western Test Range (AFWTR). Debris objects in space refer to the collection of defunct objects orbiting the Earth. Examples of debris include non-operational satellites, rocket bodies, and fragments generated from explosions, collisions, or faulty payload assembly.

Loading next visibility...
Identifier
7148, 1973-086DN
Orbit
SSO
Country
Flag of USUS
Related business
Manufacturer
Unknown
Mission
Spacecraft
Bus & Motor
Unknown
Mass
Unknown
Launch date (UTC)
1973-11-06 (53 years ago)
Launch vehicle
Unknown
Launch site
Air Force Western Test Range (AFWTR)
Object type
Payload
Rocket body
Debris
Shape & HBR
Unknown shape, 0.3 m
Radar Cross Section
Medium (>0.1 m² and <1 m²)

Expand to show TLE details & history
Last TLE update: 16 hours ago

TLE from 16 hours ago
0 DELTA 1 DEB
1  7148U 73086DN  26263.02684822  .00000180  00000-0  19421-2 0  9993
2  7148 102.0452 286.1511 0127033 121.3795 269.9278 12.26117759365226
Epoch: 2026-09-20T00:38Z
TLE epoch observation values (Epoch: 2026-09-20T00:38:39.686Z)
Latitude
29.17602°
Longitude
-89.25017°
Altitude
1,570.715 km
Speed
7.085 km/s
True Right ascension
18h 37m 22s
True Declination
29° 02' 41"
Sunlit
Object was in daylight at epoch
Visualization orbit readout
Latitude
Unknown
Longitude
Unknown
Altitude
Unknown
Speed
Unknown
Apparent Right ascension
Unknown
Apparent Declination
Unknown
Sunlit
N/A
Visualization observer readout
Local Sidereal Time
09:46:39
Azimuth
Unknown
Elevation
Unknown
Doppler factor
Unknown
Orbital elements
Apogee altitude
1,664.487 km
Perigee altitude
1,462.715 km
Semi-major axis
7,941.738 km
Eccentricity
0.0127
Inclination
102.0452°
RAAN
286.1511°
Arg. of periapsis
121.3795°
True anomaly
268.4723°
Mean anomaly
269.9278°
Eccentric anomaly
269.20003°
Mean motion
3.06669 °/min
Orbital period
117.39 mins
BSTAR
0.0019421
Loading maneuver chart data...
Computing Atmospheric mass density...
Loading historical data...
Loading historical data...
Loading historical data...
Loading historical data...
Loading historical data...
Loading historical data...
Loading historical data...

Documentation

Showing up to 5 results
|